Location: Paddlesworth
(51.1000°N, 1.1333°E)
Time: 01:24:09
(UTC+00:00)

Okean 1 - Pass Details

Date: 30 September 2021
Orbit: 538 x 553 km, 82.5° (Epoch: 17 October)

Event Time Altitude Azimuth Distance (km) Brightness Sun altitude
Exits shadow 04:26:58 - 192° (SSW) 2,472 6.4 -14.5°
Reaches altitude 10° 04:28:36 10° 194° (SSW) 1,798 5.7 -14.2°
Maximum altitude 04:32:33 78° 281° (W) 561 3.2 -13.6°
Drops below altitude 10° 04:36:33 10° 8° (N) 1,819 6.2 -13.0°
Sets 04:38:44 0° 10° (N) 2,719 7.2 -12.7°
